Temperature
33 33 32 32 33 34 34 33 33 34 35 34 33 32 32 32 31 31 29 28 27 26 25 24 23 23 22 21 20 20 20 20 19 19 19 19 19 19 19 19 19 19 18 19
33 33 34 35 34 34 34 33 33 34 35 34 33 33 33 33 32 31 30 29 28 27 25 24 23 23 22 21 21 20 20 20 19 19 19 19 19 19 19 19 19 19 19 19
33 34 35 35 34 34 34 33 34 34 34 34 33 32 32 33 32 32 31 30 29 27 26 25 24 23 22 21 21 20 20 20 20 20 19 19 19 19 19 19 19 19 19 19
33 34 34 34 34 34 33 34 34 34 33 32 33 30 31 32 32 32 32 31 30 28 27 25 24 23 23 22 21 21 20 20 20 20 19 19 19 19 19 19 19 19 19 19
34 34 34 34 34 34 34 35 34 34 33 32 33 31 31 32 31 32 32 32 31 29 28 26 25 24 23 23 22 21 21 20 20 20 20 19 19 19 19 19 19 19 19 19
34 36 35 35 35 35 35 34 33 33 32 30 32 31 31 32 32 32 33 32 31 30 29 27 26 24 24 23 22 21 21 21 20 20 20 20 19 19 19 19 19 19 19 19
33 34 35 35 34 34 34 32 30 29 29 30 32 32 32 33 33 33 32 32 31 30 29 27 26 25 24 23 23 22 21 21 21 20 20 20 20 19 19 19 19 19 19 19
32 33 34 35 34 33 33 32 30 29 29 30 32 31 32 34 34 33 32 31 31 30 29 28 26 25 24 24 23 22 22 21 21 21 20 20 20 20 20 19 19 19 19 19
33 33 35 35 35 34 32 33 33 31 31 31 31 31 32 34 33 33 32 32 31 30 29 28 27 26 25 24 23 22 22 21 21 21 20 20 20 20 20 19 19 19 19 19
33 32 34 35 35 35 35 34 33 32 29 30 30 31 31 31 32 33 32 32 30 30 29 28 27 26 25 24 23 22 22 21 21 21 20 20 20 20 20 20 19 19 19 19
33 32 33 34 33 33 34 34 33 32 31 30 29 30 32 32 32 33 33 31 30 29 29 28 27 26 25 24 23 22 22 21 21 21 20 20 20 20 19 19 19 19 19 19
33 32 32 33 35 35 34 34 33 31 30 30 30 29 32 32 33 33 32 31 30 29 29 27 26 26 25 24 23 23 22 21 21 21 20 20 20 20 20 20 19 19 19 19
32 31 30 31 33 34 34 34 34 33 32 30 29 29 32 32 33 33 32 31 30 29 28 27 26 25 24 24 23 23 22 21 21 21 20 20 20 20 20 20 19 19 19 19
31 31 30 30 31 32 32 33 34 33 32 31 31 31 31 32 32 32 31 30 29 28 27 26 25 25 24 23 23 22 22 21 21 21 20 20 20 20 19 19 19 19 19 19
32 30 30 31 32 32 33 33 33 33 33 32 32 32 32 31 31 30 30 30 29 28 27 26 25 24 24 23 23 22 22 21 21 21 20 20 20 19 19 19 19 19 19 18
31 30 30 30 31 32 32 33 33 33 33 33 32 32 33 32 31 30 29 29 29 27 26 25 25 24 23 23 23 22 22 21 21 21 20 20 20 19 19 19 19 19 19 18
30 29 28 29 30 31 30 32 33 33 33 33 32 32 33 32 31 30 29 28 28 27 26 25 24 24 23 23 22 22 22 21 21 20 20 20 20 19 19 19 18 18 18 18
28 27 28 28 28 28 31 33 34 33 33 33 33 32 32 31 30 30 29 28 27 26 25 25 24 23 23 22 22 22 21 21 21 20 20 20 19 19 19 18 18 18 18 18
29 27 27 28 28 28 30 32 32 31 31 32 32 32 31 31 30 29 27 26 26 25 25 24 23 23 23 22 22 21 21 21 20 20 20 19 19 19 19 18 18 18 18 18
28 27 27 27 27 27 29 31 32 31 29 31 31 30 30 30 29 28 26 25 25 24 24 23 23 22 22 21 21 21 21 20 20 20 20 19 19 19 18 18 18 18 18 18
27 26 26 26 26 28 30 31 30 28 27 29 29 29 29 28 27 26 25 24 24 23 23 22 22 21 21 21 20 20 20 20 20 19 19 19 19 19 19 18 18 18 18 18
26 26 26 26 25 26 29 29 28 26 27 27 27 27 27 26 25 25 24 23 23 22 22 22 21 21 20 20 20 20 19 19 19 19 19 19 19 18 18 18 18 18 17 17
26 26 26 26 25 25 26 26 26 26 26 26 26 26 25 25 25 24 23 23 22 22 21 21 20 20 20 20 19 19 19 19 18 18 18 18 18 18 18 18 17 17 17 17
26 26 26 25 25 25 25 25 25 25 25 25 25 25 24 24 23 23 22 22 21 21 20 20 20 19 19 19 19 19 18 18 18 18 18 18 18 18 17 17 17 17 17 17
25 25 25 24 24 24 24 24 24 25 24 24 24 24 23 23 22 22 21 21 20 20 20 19 19 19 18 18 18 18 18 18 17 17 17 17 17 17 17 17 17 17 17 17
25 24 24 24 24 23 23 23 23 23 23 23 23 23 22 22 21 21 20 20 20 19 19 19 18 18 18 18 18 18 17 17 17 17 17 17 17 17 17 17 17 17 17 17
Wind_Speed
9 9 7 7 8 5 1 1 1 4 5 4 5 7 10 10 9 10 12 11 11 10 11 10 9 9 9 8 6 5 4 4 2 1 1 2 2 2 2 4 3 4 3 3
9 10 8 6 5 5 4 2 2 3 4 3 4 6 9 10 9 9 11 11 12 12 11 11 10 9 8 8 7 6 5 4 3 2 1 2 2 1 2 3 3 3 3 2
11 6 6 6 6 5 4 3 3 2 2 3 3 4 7 9 8 9 10 11 12 13 14 12 11 10 9 9 8 6 5 5 4 4 2 2 2 1 2 2 3 2 3 3
10 8 6 6 6 6 5 4 4 3 3 4 4 3 6 9 9 8 9 10 11 12 14 14 12 11 10 10 9 7 6 5 3 3 3 3 3 2 2 2 2 2 2 3
11 10 9 8 7 5 5 3 5 7 6 6 3 2 6 9 8 9 9 9 11 12 13 14 13 12 10 11 10 9 7 5 4 3 2 2 1 1 1 2 3 2 2 2
12 9 8 8 6 6 6 5 6 8 6 6 4 2 5 6 8 9 9 9 10 11 12 13 12 11 10 10 10 10 8 6 5 4 4 2 2 2 1 1 2 2 2 2
14 12 10 9 8 8 7 6 5 4 5 6 6 3 4 8 7 8 8 9 9 10 11 12 13 12 11 11 10 10 10 8 7 5 4 3 3 3 2 2 2 2 2 2
14 13 13 11 10 8 9 8 7 5 5 4 4 2 4 9 9 8 9 9 8 9 10 12 12 12 11 11 10 10 10 8 7 6 5 4 3 3 2 2 2 1 1 1
10 11 12 12 11 10 10 10 10 8 8 5 1 4 4 6 9 9 9 9 8 9 10 10 11 12 11 11 10 10 10 9 8 7 5 4 3 2 1 1 1 1 1 1
12 9 10 10 11 13 12 12 8 7 5 6 3 3 4 6 5 8 9 9 7 8 9 9 10 10 10 9 9 9 9 8 7 7 6 6 5 3 2 2 1 0 0 1
13 11 11 11 11 12 11 12 9 6 6 6 5 1 4 6 6 7 8 10 8 6 9 9 9 9 9 9 9 9 8 8 7 6 5 4 4 3 3 2 1 1 0 0
12 11 11 13 12 11 12 12 10 7 5 6 4 2 2 3 5 5 7 9 10 8 8 8 8 9 8 8 8 8 8 8 7 6 5 4 3 3 3 2 2 1 1 1
8 8 10 13 12 12 12 12 11 10 7 6 5 4 4 3 4 5 7 8 8 8 7 7 7 7 7 7 7 7 7 7 7 6 6 5 4 3 3 2 2 2 1 2
7 9 12 13 10 10 12 13 12 12 9 7 8 7 7 5 4 5 7 7 8 7 7 6 6 6 6 6 6 6 6 6 6 6 6 5 4 3 3 3 3 2 2 2
9 12 14 15 14 14 12 13 13 13 12 11 9 7 5 5 6 5 4 6 7 7 6 6 5 5 5 6 6 6 5 5 5 5 5 4 4 3 3 3 3 3 3 4
9 10 12 14 15 15 16 15 14 14 12 12 8 6 4 5 6 6 4 3 6 7 6 6 5 5 5 5 5 5 5 5 5 5 5 4 4 4 4 4 3 3 3 3
9 9 11 13 15 16 18 15 14 13 11 10 9 7 4 5 6 6 6 5 4 6 6 6 4 4 5 4 4 5 5 4 5 4 4 4 4 4 4 4 3 3 3 3
8 7 9 12 13 18 13 12 13 11 10 8 6 4 3 3 4 4 5 5 4 4 4 4 4 4 4 4 4 4 5 5 5 4 3 3 3 3 3 3 3 3 3 3
9 8 10 11 14 15 13 12 10 8 8 7 5 5 3 1 2 3 6 5 3 3 3 3 4 4 4 4 4 3 4 5 4 4 3 3 3 3 3 3 3 3 3 4
10 8 10 11 13 13 9 6 6 6 7 4 4 3 2 2 4 3 6 6 4 4 3 2 2 2 3 2 3 4 4 4 4 4 3 3 3 2 3 3 3 3 4 4
14 13 15 14 14 11 7 3 4 8 2 3 2 2 1 2 3 6 6 6 5 4 3 3 3 3 2 2 2 2 2 3 3 2 2 3 3 4 4 3 3 4 4 5
12 11 12 12 13 10 4 3 2 2 4 4 4 3 3 5 6 6 5 5 4 4 3 3 3 3 2 1 1 2 2 1 1 2 3 3 3 4 3 3 4 4 5 5
8 7 6 5 5 1 4 4 5 4 3 3 3 4 4 3 4 5 4 3 4 4 3 2 2 2 2 1 1 1 1 1 1 2 3 3 3 4 4 4 5 4 4 5
7 5 5 4 3 1 1 1 1 2 2 3 3 2 2 1 3 3 3 3 3 2 2 1 2 1 1 1 1 1 1 1 2 3 3 3 4 5 4 4 4 4 4 4
7 5 5 5 3 2 3 2 1 1 1 1 0 0 1 1 1 2 2 2 2 2 1 1 1 1 1 1 1 1 1 1 3 3 3 5 6 4 4 4 4 4 4 5
7 7 7 5 3 3 3 2 3 2 1 1 1 1 0 0 0 1 2 2 2 2 1 1 1 1 1 1 1 1 1 2 3 3 4 4 4 3 4 4 4 4 5 6
Wind_Direction
212 227 224 207 220 234 222 205 173 121 125 139 128 134 141 146 159 155 153 154 157 155 153 152 150 144 139 135 133 127 122 118 107 89 131 129 112 109 97 106 105 110 111 120
226 231 229 214 227 239 225 229 196 148 146 159 147 142 140 149 158 153 155 160 160 159 155 154 156 156 150 146 145 143 144 137 137 123 116 120 117 117 116 102 120 128 128 142
233 234 227 220 232 240 245 236 238 197 187 187 182 162 148 151 146 150 156 160 161 162 160 161 163 161 158 154 154 152 144 139 145 147 144 124 122 106 97 113 125 132 156 156
238 235 238 235 234 240 250 249 263 257 249 233 194 154 160 158 155 155 160 163 162 161 161 163 165 163 164 160 156 149 145 140 141 150 151 156 153 160 153 148 137 143 168 162
234 224 226 235 241 244 264 291 287 284 274 271 204 186 161 153 161 161 165 162 158 161 161 164 166 166 167 163 159 155 146 146 148 152 150 167 152 164 155 149 155 157 166 178
249 235 228 237 238 237 254 265 275 273 275 263 243 197 146 150 155 156 158 157 157 158 157 158 158 159 163 161 158 155 150 155 161 165 157 163 169 191 178 174 183 181 180 185
237 235 228 232 235 235 238 252 268 270 259 247 224 203 134 131 132 140 147 150 152 150 153 156 157 162 165 164 161 154 155 165 170 173 168 176 195 202 208 221 210 200 185 185
231 225 222 224 230 240 244 243 246 253 253 250 204 144 123 126 132 136 139 144 148 151 153 156 159 164 169 165 160 159 159 165 172 175 174 179 199 208 214 237 235 222 195 181
244 231 217 219 226 231 244 246 244 257 268 269 182 120 143 126 130 133 141 145 156 158 155 157 162 166 167 164 164 164 161 166 175 175 174 171 184 212 210 246 260 207 238 211
256 258 239 229 226 230 241 255 255 252 265 274 255 181 165 143 144 144 147 147 146 148 146 151 156 158 159 159 159 160 162 165 170 170 182 181 184 188 181 200 280 4 297 19
238 249 242 232 226 231 233 246 260 283 279 262 269 286 149 175 168 156 147 140 142 155 145 150 152 154 155 161 161 158 159 161 169 172 175 172 174 173 171 180 187 210 189 242
234 247 246 241 233 236 246 247 246 247 257 274 271 281 221 213 165 151 138 133 145 154 142 142 146 150 154 159 161 159 163 168 169 166 167 173 175 177 183 186 184 196 196 226
241 247 247 241 234 226 241 244 246 249 248 256 255 228 203 179 157 134 127 127 131 133 133 132 137 145 152 157 152 155 165 167 169 166 171 177 182 187 193 189 181 201 207 233
245 242 250 248 247 241 239 245 247 253 254 242 239 218 208 166 133 109 115 122 128 131 133 133 134 140 148 152 152 157 164 165 163 161 174 179 185 189 200 203 199 205 215 224
234 240 248 259 264 264 256 245 244 247 255 258 249 230 207 152 130 119 126 139 140 136 137 135 139 146 151 153 153 158 164 159 162 165 174 178 184 189 204 212 211 210 223 232
230 252 254 259 260 260 259 250 250 248 245 247 249 253 194 151 133 129 127 155 150 145 149 143 148 146 152 158 161 162 165 163 162 173 180 177 185 194 207 213 206 211 228 246
223 237 249 253 259 263 254 245 244 249 251 254 253 250 196 159 138 142 157 180 167 151 146 144 150 155 158 160 162 167 169 160 159 169 186 193 192 202 212 219 203 216 232 239
234 247 247 248 252 253 257 261 251 248 254 257 259 266 217 180 154 158 147 129 122 128 132 141 151 164 171 168 171 177 176 168 168 174 188 197 201 208 208 214 216 218 232 244
225 231 243 246 245 248 255 261 262 250 260 270 271 282 282 201 136 122 110 106 94 96 112 131 154 176 171 169 172 180 183 172 179 191 200 195 202 215 214 217 219 219 232 245
218 219 235 245 248 249 254 263 271 253 247 270 261 268 296 260 229 122 97 102 96 88 94 106 121 135 136 147 166 185 197 186 194 201 203 196 203 215 222 225 225 230 233 239
214 215 226 241 249 252 259 251 244 237 241 357 324 295 245 68 76 85 83 86 89 94 89 95 92 93 101 125 155 190 207 203 194 193 197 205 214 225 223 223 231 236 240 242
226 222 224 235 246 250 298 238 252 78 56 35 26 24 61 95 98 91 84 85 98 98 89 94 95 96 100 135 169 196 217 228 195 196 206 213 221 240 236 233 241 240 241 243
237 243 241 235 233 35 18 45 80 93 77 46 45 50 51 72 96 94 86 82 86 86 80 81 96 97 84 96 156 238 237 252 235 223 217 226 232 233 239 237 241 242 240 246
239 258 248 257 222 180 110 81 86 85 76 47 46 33 34 32 83 82 86 86 86 82 77 72 84 75 55 36 356 259 242 221 235 243 232 237 237 236 232 236 235 240 244 246
254 259 249 242 227 280 282 319 352 44 84 88 63 334 310 15 91 101 103 107 104 84 79 54 53 45 33 33 360 327 266 237 252 254 249 245 241 236 235 239 243 242 238 242
252 256 250 242 214 240 265 303 310 308 273 269 305 284 252 309 181 128 117 109 108 103 84 68 12 309 331 1 338 335 295 244 248 254 257 258 259 245 242 240 250 245 235 234
Height
1476 1478 1480 1477 1473 1471 1472 1476 1478 1472 1467 1472 1477 1480 1482 1485 1489 1493 1497 1503 1507 1510 1514 1516 1518 1520 1520 1521 1521 1522 1522 1522 1523 1523 1523 1524 1525 1526 1526 1526 1526 1527 1528 1529
1475 1476 1469 1466 1467 1467 1471 1477 1476 1471 1466 1471 1476 1478 1478 1481 1485 1489 1494 1499 1504 1508 1512 1515 1517 1519 1520 1521 1521 1522 1523 1523 1523 1523 1524 1525 1526 1527 1527 1527 1528 1528 1529 1529
1476 1469 1464 1466 1468 1472 1472 1475 1474 1474 1468 1468 1476 1483 1480 1479 1483 1487 1491 1495 1500 1504 1509 1512 1515 1517 1519 1520 1521 1522 1522 1523 1524 1524 1525 1526 1527 1528 1528 1528 1528 1529 1529 1530
1470 1465 1466 1468 1469 1470 1478 1466 1467 1470 1477 1481 1478 1500 1486 1479 1481 1484 1488 1492 1496 1501 1505 1509 1513 1515 1517 1519 1520 1521 1522 1523 1524 1525 1525 1526 1527 1528 1529 1529 1529 1529 1530 1530
1468 1464 1466 1470 1467 1467 1471 1466 1468 1470 1475 1481 1477 1492 1490 1480 1484 1483 1485 1488 1493 1498 1502 1506 1510 1513 1516 1518 1519 1520 1521 1522 1523 1524 1526 1527 1527 1528 1529 1529 1529 1530 1530 1530
1462 1459 1461 1463 1462 1464 1465 1468 1472 1474 1479 1499 1484 1491 1494 1480 1479 1479 1482 1486 1490 1495 1500 1504 1509 1512 1514 1516 1518 1519 1520 1521 1523 1524 1525 1526 1527 1528 1528 1529 1529 1529 1530 1530
1468 1462 1459 1461 1466 1465 1468 1482 1501 1507 1509 1503 1477 1485 1486 1471 1471 1476 1479 1484 1489 1493 1498 1502 1506 1509 1512 1514 1516 1517 1519 1520 1522 1523 1524 1525 1526 1527 1528 1528 1529 1529 1529 1529
1476 1474 1460 1459 1464 1470 1471 1479 1502 1517 1516 1498 1480 1486 1477 1466 1470 1474 1479 1484 1488 1492 1496 1500 1504 1507 1510 1513 1515 1516 1517 1519 1521 1522 1523 1524 1525 1526 1526 1527 1528 1528 1528 1528
1470 1470 1454 1455 1457 1462 1473 1473 1470 1485 1490 1497 1489 1485 1476 1468 1470 1473 1478 1483 1487 1491 1495 1498 1502 1506 1509 1511 1513 1515 1516 1518 1519 1521 1522 1523 1524 1525 1526 1526 1527 1527 1527 1528
1461 1470 1458 1453 1455 1456 1460 1462 1470 1483 1503 1508 1497 1491 1486 1477 1474 1473 1477 1482 1487 1491 1494 1497 1501 1504 1507 1510 1512 1514 1515 1517 1518 1520 1521 1522 1523 1523 1524 1525 1525 1525 1526 1526
1457 1469 1465 1458 1462 1463 1463 1465 1468 1474 1480 1499 1511 1498 1471 1472 1471 1473 1476 1480 1486 1490 1493 1497 1500 1503 1506 1508 1511 1512 1514 1515 1517 1518 1520 1521 1522 1522 1523 1523 1524 1524 1524 1524
1456 1462 1470 1463 1452 1451 1455 1459 1464 1482 1490 1486 1498 1498 1468 1469 1469 1472 1475 1479 1485 1489 1493 1496 1499 1502 1505 1507 1509 1511 1512 1514 1515 1517 1518 1520 1521 1521 1521 1521 1522 1522 1522 1522
1457 1466 1480 1477 1466 1457 1458 1456 1457 1463 1474 1486 1497 1496 1467 1469 1469 1471 1475 1480 1484 1488 1492 1495 1498 1500 1503 1505 1508 1510 1511 1513 1514 1516 1516 1518 1519 1519 1520 1520 1520 1520 1520 1520
1459 1465 1475 1482 1472 1461 1462 1459 1456 1462 1475 1483 1483 1480 1470 1468 1470 1473 1477 1480 1484 1488 1492 1495 1497 1500 1502 1504 1506 1508 1510 1512 1513 1514 1515 1516 1517 1517 1518 1518 1518 1518 1518 1518
1458 1466 1466 1463 1458 1456 1458 1458 1458 1462 1464 1473 1472 1470 1467 1467 1470 1476 1479 1481 1484 1488 1491 1494 1497 1499 1501 1503 1505 1507 1508 1510 1511 1512 1513 1514 1515 1516 1516 1517 1517 1517 1516 1517
1458 1465 1466 1467 1459 1457 1459 1455 1455 1456 1457 1460 1464 1466 1460 1465 1470 1476 1479 1482 1484 1488 1491 1493 1496 1498 1499 1501 1503 1504 1506 1508 1509 1510 1511 1512 1513 1514 1514 1514 1514 1514 1514 1514
1459 1466 1473 1475 1464 1462 1467 1454 1454 1454 1453 1457 1464 1463 1460 1465 1470 1474 1478 1482 1484 1486 1489 1492 1495 1497 1498 1500 1501 1503 1504 1506 1507 1508 1509 1510 1510 1511 1512 1512 1512 1512 1512 1511
1462 1467 1470 1472 1475 1487 1461 1444 1445 1450 1451 1451 1455 1458 1460 1464 1468 1473 1477 1480 1483 1486 1488 1491 1493 1496 1497 1498 1500 1501 1503 1504 1505 1506 1507 1508 1508 1508 1509 1509 1509 1509 1509 1509
1458 1465 1471 1472 1477 1471 1457 1448 1447 1453 1456 1453 1456 1458 1461 1464 1468 1473 1478 1481 1483 1485 1488 1490 1492 1494 1496 1497 1498 1499 1501 1502 1502 1503 1504 1505 1505 1505 1506 1506 1506 1506 1506 1506
1457 1462 1471 1471 1478 1479 1461 1448 1448 1453 1463 1457 1458 1460 1463 1465 1470 1475 1478 1481 1483 1485 1487 1489 1491 1493 1493 1494 1495 1497 1498 1499 1499 1500 1501 1502 1502 1502 1502 1502 1502 1503 1503 1502
1461 1464 1469 1471 1474 1465 1451 1449 1451 1467 1468 1461 1461 1463 1465 1469 1473 1478 1479 1481 1483 1485 1487 1488 1489 1490 1491 1492 1493 1494 1495 1495 1496 1497 1498 1498 1499 1499 1499 1499 1499 1499 1499 1499
1457 1461 1465 1468 1475 1472 1453 1452 1458 1463 1463 1463 1464 1466 1468 1471 1474 1477 1480 1482 1484 1485 1487 1487 1488 1489 1490 1490 1491 1492 1492 1493 1493 1494 1494 1495 1495 1496 1496 1496 1496 1496 1495 1495
1452 1456 1457 1461 1466 1462 1459 1460 1461 1463 1464 1465 1467 1469 1471 1473 1475 1478 1480 1482 1484 1485 1486 1487 1487 1488 1488 1489 1489 1489 1490 1490 1490 1490 1490 1490 1492 1492 1493 1493 1492 1492 1492 1492
1452 1452 1455 1460 1459 1460 1461 1463 1463 1464 1466 1467 1469 1471 1473 1475 1476 1478 1480 1482 1483 1485 1486 1486 1486 1486 1487 1487 1487 1487 1487 1488 1488 1487 1487 1487 1489 1489 1489 1490 1489 1489 1488 1488
1452 1453 1455 1459 1460 1462 1463 1465 1465 1466 1467 1469 1470 1472 1474 1476 1477 1479 1480 1482 1483 1484 1485 1485 1485 1485 1485 1485 1484 1485 1485 1485 1485 1485 1485 1485 1486 1486 1486 1486 1486 1485 1484 1484
1451 1454 1457 1459 1461 1463 1464 1465 1466 1467 1468 1469 1471 1472 1474 1476 1477 1478 1479 1481 1482 1482 1483 1484 1484 1484 1484 1483 1482 1482 1482 1482 1482 1483 1483 1483 1483 1483 1483 1482 1481 1481 1481 1480